Volver al catálogo

EOS-4

ActivoCienciaSSO
NORAD 51656·PAYLOAD·🇮🇳 India

Lanzado Feb 14, 2022 desde Satish Dhawan Space Centre

Loading…

Próximos Pases (próximas 24 horas)

TLE

ActualizadoSource: Space-Track

Época: Sep 14, 2026, 14:19 UTC

1 51656U 22013A   26257.59692233  .00001157  00000-0  69754-4 0  9991
2 51656  97.5146 262.8957 0001892  85.2430 274.9017 15.12723614253000

Sigue EOS-4 en tiempo real con AllMySat

Download on the App Store